www.pogodaiklimat.ru

Погода и климат >> Архив погоды >> Беларусь >> Минск


АРХИВ ПОГОДЫ в Минске

Время (UTC), дата Ветер
(напр.,м/с)
 
Видим.   Явления Облачность Т
(С)
Тd
(С)
f
(%)
Тe
(С)
Тes
(С)
Комфортность P
(гПа)
Po
(гПа)
Тmin
(С)
Tmax
(С)
R
(мм)
R24
(мм)
S
(см)
18 12.10 ЮЗ 2 10 км {дождь} 10/10 480 м
[Sc]
+11.0 +9.9 93 +10 +10 тепло 1007.4 980.8 +13.0 0.8
21 12.10 ЮЗ 2 10 км {дождь} 10/10 330 м
[Sc]
+10.4 +9.2 92 +9 +9 тепло 1006.2 979.6
00 13.10 З 3 10 км {дождь} 10/10 330 м
[Sc]
+9.9 +7.6 86 +8 +8 тепло 1005.3 978.5
03 13.10 З 2
{11}
10 км слабый дождь 10/10 330 м
[Sc]
+6.9 +5.7 92 +5 +5 по сезону 1005.6 978.5
06 13.10 ЮЗ 3
{10}
15 км в посл. час дождь 10/10 480 м
[Sc]
+8.1 +5.9 86 +5 +5 по сезону 1005.6 978.7 +6.7 7
09 13.10 ЮЗ 4
{11}
10 км слабый дождь 10/10 450 м
[Sc]
+8.3 +5.9 85 +5 +5 по сезону 1005.4 978.6
12 13.10 З 3
{11}
6000 м слабый дождь 10/10 240 м
[Sc]
+8.9 +7.2 89 +6 +6 прохладно 1005.9 979.1
15 13.10 З 2 9000 м слабый дождь 10/10 270 м
[Sc]
+8.9 +8.2 95 +7 +7 по сезону 1007.4 980.6
18 13.10 З 2 10 км {дождь} 10/10 210 м
[Sc]
+9.4 +8.5 94 +8 +8 по сезону 1008.9 982.1 +9.4 1
21 13.10 З 4 6000 м слабый дождь 10/10 330 м
[Sc]
+9.5 +8.8 95 +6 +6 по сезону 1010.7 983.9
00 14.10 СЗ 3
{11}
15 км {дождь} 8/8 480 м
[Sc]
+8.0 +6.0 87 +5 +5 по сезону 1013.4 986.3
03 14.10 СЗ 4
{10}
15 км 10/10 420 м
[Sc]
+6.9 +4.9 87 +3 +3 по сезону 1016.1 988.8
06 14.10 СЗ 3 15 км {дождь} 10/10 400 м
[Sc]
+6.7 +4.6 86 +4 +4 по сезону 1017.2 989.8 +6.2 0.0
09 14.10 СЗ 3 10 км слабый дождь 10/10 450 м
[Sc]
+7.8 +4.7 81 +5 +5 по сезону 1017.9 990.6
12 14.10 З 2 10 км слабый дождь 10/10 330 м
[Sc]
+7.7 +5.1 84 +6 +6 по сезону 1017.7 990.4
15 14.10 ЮЗ 2 10 км слабый дождь 10/10 270 м
[Frnb Ns]
+7.5 +6.0 90 +5 +5 по сезону 1016.2 988.9
18 14.10 Ю 1 6000 м слабый дождь 10/10 270 м
[Frnb Ns]
+7.5 +7.0 97 +6 +6 по сезону 1014.4 987.1 +8.3 1
21 14.10 З 2 7000 м в посл. час морось {дождь} 10/10 270 м
[Sc]
+9.0 +8.6 97 +7 +7 по сезону 1012.9 985.9
00 15.10 З 3 6000 м слабая морось {дождь} 10/10 270 м
[Frnb Ns]
+12.3 +11.9 97 +11 +11 тепло 1012.2 985.5
03 15.10 З 4
{11}
15 км {дождь, морось} 9/9 400 м
[Sc]
+12.0 +10.2 89 +10 +10 тепло 1012.2 985.5
06 15.10 З 4
{11}
15 км {дождь, морось} 10/10 300 м
[Sc]
+11.4 +9.2 86 +9 +9 тепло 1012.7 985.9 +7.5 2
09 15.10 СЗ 5-10
{13}
15 км 10/8 660 м
[Sc Ac trans]
+12.4 +8.5 77 +10 +10 тепло 1014.1 987.4
12 15.10 СЗ 5
{10}
15 км 8/8 1020 м
[Sc Ac trans Ci fib]
+13.6 +7.0 64 +12 +12 тепло 1015.4 988.8
15 15.10 СЗ 4
{10}
15 км 9/0
[Ac trans Ci fib]
+11.9 +6.2 68 +10 +10 тепло 1017.8 991.0
18 15.10 З 3 15 км 4/0
[Ci fib]
+9.9 +6.3 78 +8 +8 по сезону 1020.2 993.1 +14.1
21 15.10 З 2 15 км 3/0
[Ci fib]
+8.4 +6.8 90 +6 +6 по сезону 1021.5 994.3
00 16.10 З 3 15 км 3/0
[Ci fib]
+8.1 +6.8 91 +5 +5 по сезону 1021.8 994.5
03 16.10 З 3 15 км 10/0
[Ac trans]
+8.0 +7.0 93 +5 +5 по сезону 1022.5 995.2
06 16.10 З 3 15 км 10/0
[Ac trans]
+7.3 +6.0 91 +4 +4 по сезону 1022.3 994.9 +7.3
09 16.10 З 3 15 км 10/0
[Ac trans]
+10.7 +6.4 75 +9 +10 тепло 1021.2 994.2
12 16.10 ЮЗ 3 10 км 9/8 800 м
[Sc Ac trans]
+12.4 +9.9 85 +11 +11 тепло 1019.3 992.4
15 16.10 ЮЗ 2 15 км 9/8 800 м
[Sc Ac trans]
+13.7 +11.6 87 +13 +13 тепло 1017.6 990.9
18 16.10 З 2 15 км 4/0
[Ci fib]
+13.2 +12.0 92 +12 +12 тепло 1016.9 990.2 +14.2
21 16.10 З 3 15 км 10/8 660 м
[Sc Ac trans]
+14.2 +12.3 88 +13 +13 тепло 1017.0 990.4
00 17.10 З 3 15 км 9/9 720 м
[Sc Ac trans]
+13.6 +10.4 81 +12 +12 тепло 1017.7 991.1
03 17.10 З 2 15 км 3/0
[Ci fib]
+11.3 +9.4 88 +10 +10 тепло 1018.8 991.8
06 17.10 З 2 18 км 6/0
[Ac trans Ci fib]
+11.1 +9.4 89 +10 +10 тепло 1020.4 993.5 +10.6
09 17.10 З 2 20 км 9/9 570 м
[Sc]
+13.1 +9.7 80 +12 +13 тепло 1021.9 995.1
12 17.10 ЮЗ 2 20 км 10/10 420 м
[Sc]
+12.8 +9.4 80 +12 +12 тепло 1021.2 994.4
15 17.10 ЮЗ 4 15 км 9/8 450 м
[Sc Ac trans]
+12.8 +9.4 80 +11 +11 тепло 1019.9 993.0
18 17.10 ЮЗ 4
{10}
10 км 10/10 270 м
[Sc]
+11.9 +9.9 88 +10 +10 тепло 1018.5 991.7 +13.3
21 17.10 ЮЗ 4
{10}
6000 м дымка 10/10 210 м
[Sc]
+12.8 +11.6 92 +11 +11 тепло 1016.9 990.2
00 18.10 ЮЗ 3 6000 м дымка 10/10 240 м
[Sc]
+12.8 +11.3 91 +11 +11 тепло 1015.3 988.7
03 18.10 ЮЗ 2 6000 м дымка 10/10 210 м
[Sc]
+13.7 +12.1 90 +13 +13 тепло 1014.1 987.5
06 18.10 ЮЗ 1 6000 м дымка 10/10 630 м
[Sc]
+13.0 +11.4 90 +13 +13 тепло 1013.9 987.2 +11.7
09 18.10 ЮЗ 1 7000 м дымка 10/10 330 м
[Sc]
+13.9 +12.0 88 +14 +14 тепло 1013.5 986.9
12 18.10 З 3
{10}
10 км 10/5 700 м
[Sc As op]
+15.2 +7.6 60 +15 +15 тепло 1012.7 986.2
15 18.10 З 2 10 км 8/3 800 м
[Sc Ac trans]
+13.2 +8.6 74 +13 +13 тепло 1013.7 987.0
18 18.10 З 2 17 км 9/8 800 м
[Sc Ac trans]
+12.2 +8.1 76 +11 +11 тепло 1014.7 987.7 +13.7
21 18.10 З 1 22 км 8/5 870 м
[Sc Ac trans]
+11.8 +7.9 77 +12 +12 тепло 1015.1 988.1
00 19.10 СЗ 1 23 км 8/6 720 м
[Sc Ac trans]
+11.1 +8.4 83 +11 +11 тепло 1016.1 989.0
03 19.10 штиль 0 19 км 10/10 700 м
[Sc]
+10.7 +8.6 87 +10 +10 тепло 1016.8 989.6
06 19.10 штиль 0 6000 м слабая морось 10/10 330 м
[St]
+9.2 +8.4 95 +8 +8 тепло 1018.3 990.9 +9.0 0.0
09 19.10 С 1 35 км {морось} 10/8 1020 м
[Sc Ac trans]
+10.0 +5.2 72 +10 +10 тепло 1019.4 992.1
12 19.10 СВ 1 30 км {морось} 9/0
[Ac trans]
+10.7 +4.1 64 +11 +12 тепло 1019.9 992.7
15 19.10 СВ 1 27 км 6/0
[Ac trans Ci fib]
+8.3 +3.0 69 +8 +8 по сезону 1020.2 992.7

 

Местоположение метеостанции Минск (город Минск, Беларусь): широта 53.93 долгота 27.63 высота над уровнем моря 231 м.

В архиве по умолчанию представлена погода в Минске за последнюю неделю. Архивные данные за месяц целиком и за предыдущие месяцы, начиная с января 2011 года, Вы можете получить, выбрав интересующий диапазон дат из раскрывающегося списка и нажав кнопку "Ввод!".

Внимание! Время в таблицах - всемирное. Для получения местного времени необходимо прибавить поправку, которая в Минске равна 3 ч.

Смотрите также архив погоды в соседних городах и на ближайших метеорологических станциях:

Погода в Марьиной Горке (Минская область, Беларусь) (63 км)
Погода в Борисове (Минская область, Беларусь) (68 км)
Погода в Воложине (Минская область, Беларусь) (75 км)
Погода в Вилейке (Минская область, Беларусь) (77 км)
Погода в Столбцах (Минская область, Беларусь) (78 км)
Погода в Березино (Минская область, Беларусь) (90 км)
Погода в Барановичах (Брестская область, Беларусь) (92 км)
Погода в Слуцке (Минская область, Беларусь) (100 км)
Погода в Докшицах (Витебская область, Беларусь) (106 км)
Погода в Кличеве (Могилевская область, Беларусь) (121 км)

Пояснения к столбцам:

Ветер - указаны скорость ветра в м/с - средняя за 10 мин, порывы в срок и между сроками (в фигурных скобках) и направление, откуда дует ветер: С - северный, СВ - северо-восточный, В - восточный, ЮВ - юго-восточный, Ю - южный, ЮЗ - юго-западный, З - западный, СЗ - северо-западный.
Видимость - горизонтальная дальность видимости в метрах или километрах. При видимости от 1 до 10 км при отсутствии осадков обычно наблюдается дымка, при ухудшении видимости до 1 км и менее - туман. В сухую погоду видимость может ухудшаться дымом, пылью или мглою.
Явления - указаны атмосферные явления, наблюдавшиеся в срок или в последний час перед сроком; фигурными скобками обозначены явления, наблюдавшиеся между сроками (за 1-3 часа до срока); квадратными скобками обозначены град или гололедные отложения с указанием их диаметра в мм.
Облачность - указаны через наклонную черту общая и нижняя облачность в баллах и высота нижней границы облаков в метрах; квадратными скобками обозначены формы облаков: Ci - перистые, Cs - перисто-слоистые, Cc - перисто-кучевые, Ac - высококучевые, As - высокослоистые, Sc - слоисто-кучевые, Ns - слоисто-дождевые, Cu - кучевые, Cb - кучево-дождевые. Подробнее классификацию облаков см. в Атласе облаков (PDF).
T - Температура воздуха - температура, измеренная на высоте 2 м над землей.
Td - Температура точки росы - температура, при понижении до которой содержащийся в воздухе водяной пар достигнет насыщения.
f - Относительная влажность воздуха - влажноcть воздуха, измеренная на высоте 2 м над землей.
Te - Эффективная температура - температура, которую ощущает одетый по сезону человек в тени. Характеристика душности погоды. При расчете учитывается влияние влажности воздуха и скорости ветра на теплоощущения человека.
Tes - Эффективная температура на солнце - температура, которую ощущает человек, с поправкой на солнечный нагрев. Характеристика знойности погоды. Зависит от высоты солнца над горизонтом, облачности и скорости ветра. Ночью, в пасмурную погоду, а также при ветре 12 м/с и более поправка равна нулю.
P - Атмосферное давление - приведенное к уровню моря атмосферное давление.
Po - Атмосферное давление - измеренное на уровне метеостанции атмосферное давление.
Tmin - Минимальная температура - минимум температуры воздуха на высоте 2 м над землей.
Tmax - Максимальная температура - максимум температуры воздуха на высоте 2 м над землей.
R - Количество осадков - Количество выпавших осадков за период времени, мм. При наведении курсора мыши на число - период времени, за который выпало указанное количество осадков.
R24 - Количество осадков - Количество выпавших осадков за 24 часа, мм.
S - Снежный покров - Высота снежного покрова, см. При наведении курсора мыши на число - состояние снежного покрова и степень покрытия местности в баллах.